(173) Ino
ephemeris date magn radius delta ra dec elong phase
Today24 Aug 202613.62.989 AU2.980 AU15h28m-04°34'80.8°19.5°
Opposition3 Sep 202710.42.240 AU1.234 AU22h59m-12°43'174.2°2.6°
(173) Ino - 2026-08-24
astro.vanbuitenen.nl


 
-1 year
-1 month
-1 day
Now
+1 day
+1 month
+1 year

The interactive orbit chart above shows the body's path through the solar system and its position at the given date. Green and blue lines are shown perpendicular to the ecliptic plane: Green if the path is above the ecliptic plane, blue if it is below. (Left-click and drag to rotate the view; Right-click and drag to move the view; Use scroll wheel to zoom in our out.)

The orbital elements of Ino are:

            e (Eccentricity)                : 0.2093396
            a (Semimajor axis)              : 2.7421540
            i (Inclination)                 : 14.19456
            Ω (Longitude of ascending node) : 148.11879
            ω (Argument of perihelion)      : 228.53493
            M (Mean anomaly)                : 238.83177
            Epoch                           : 2026 Jun 09

            L (Longitude of perihelion)     : 195.77064
            B (Latitude of perihelion)      : -10.58852
            P (Orbital period in years)     : 4.54            
        

The light curve chart below shows the estimated development of the minor planet's magnitude.


The all-sky chart below shows the path of the minor planet over the same period as the light curve. The current position is marked yellow.





The following chart shows the path of the minor planet in the next few days. The field of view is optimized for (~10x50) binoculars and finderscopes.




Ephemerides:
Date       Time       RA (2000)    DEC (2000)    delta   radius  elong  phase   PA    magn
2026-08-24 00:00 UT   15 28 48.5   -04 34 43     2.980    2.989   80.8   19.5   102   13.6 
2026-08-24 13:01 UT   15 29 13.5   -04 38 46     2.986    2.988   80.4   19.5   102   13.6 
2026-08-25 00:00 UT   15 29 34.7   -04 42 11     2.991    2.987   80.1   19.5   102   13.6 
2026-08-26 00:00 UT   15 30 21.9   -04 49 40     3.003    2.986   79.3   19.4   102   13.6 
2026-08-27 00:00 UT   15 31 09.9   -04 57 09     3.014    2.984   78.6   19.4   102   13.6 
2026-08-28 00:00 UT   15 31 58.7   -05 04 38     3.025    2.982   77.9   19.3   101   13.7 
2026-08-29 00:00 UT   15 32 48.5   -05 12 07     3.037    2.980   77.2   19.3   101   13.7 
2026-08-30 00:00 UT   15 33 39.1   -05 19 36     3.048    2.978   76.5   19.2   101   13.7 
2026-08-31 00:00 UT   15 34 30.5   -05 27 05     3.059    2.977   75.8   19.2   101   13.7 
2026-09-01 00:00 UT   15 35 22.8   -05 34 34     3.070    2.975   75.1   19.1   100   13.7 
2026-09-02 00:00 UT   15 36 15.9   -05 42 02     3.081    2.973   74.4   19.1   100   13.7 
2026-09-03 00:00 UT   15 37 09.8   -05 49 30     3.092    2.971   73.7   19.0   100   13.7 
2026-09-04 00:00 UT   15 38 04.6   -05 56 58     3.103    2.969   73.0   19.0   100   13.7 
2026-09-05 00:00 UT   15 39 00.1   -06 04 25     3.114    2.967   72.3   18.9    99   13.7 
2026-09-06 00:00 UT   15 39 56.5   -06 11 51     3.125    2.966   71.6   18.8    99   13.7 
2026-09-07 00:00 UT   15 40 53.7   -06 19 17     3.136    2.964   70.9   18.7    99   13.7 
2026-09-08 00:00 UT   15 41 51.6   -06 26 42     3.147    2.962   70.2   18.7    99   13.7 
2026-09-09 00:00 UT   15 42 50.3   -06 34 07     3.158    2.960   69.5   18.6    98   13.7 
2026-09-10 00:00 UT   15 43 49.8   -06 41 30     3.168    2.958   68.9   18.5    98   13.7 
2026-09-11 00:00 UT   15 44 50.1   -06 48 53     3.179    2.956   68.2   18.4    98   13.7 
2026-09-12 00:00 UT   15 45 51.1   -06 56 14     3.189    2.954   67.5   18.3    98   13.7 
2026-09-13 00:00 UT   15 46 52.9   -07 03 34     3.200    2.952   66.8   18.3    97   13.7 
2026-09-14 00:00 UT   15 47 55.4   -07 10 53     3.210    2.951   66.1   18.2    97   13.7 
2026-09-15 00:00 UT   15 48 58.7   -07 18 11     3.221    2.949   65.5   18.1    97   13.7 
2026-09-16 00:00 UT   15 50 02.6   -07 25 27     3.231    2.947   64.8   18.0    97   13.7 
2026-09-17 00:00 UT   15 51 07.3   -07 32 42     3.241    2.945   64.1   17.9    96   13.7 
2026-09-18 00:00 UT   15 52 12.7   -07 39 55     3.251    2.943   63.5   17.8    96   13.7 
2026-09-19 00:00 UT   15 53 18.8   -07 47 07     3.261    2.941   62.8   17.7    96   13.7 
2026-09-20 00:00 UT   15 54 25.6   -07 54 17     3.271    2.939   62.1   17.6    96   13.7 
2026-09-21 00:00 UT   15 55 33.0   -08 01 25     3.281    2.937   61.5   17.5    95   13.7 
2026-09-22 00:00 UT   15 56 41.1   -08 08 32     3.291    2.935   60.8   17.4    95   13.7 
2026-09-23 00:00 UT   15 57 49.9   -08 15 36     3.301    2.933   60.2   17.3    95   13.7 


    Terminology:
            
    delta:  distance between minor planet and earth in AU
    radius: distance between minor planet and sun in AU
    magn:   magnitude (brightness) estimate    
    ra:     right ascension in hours (24h = 360deg)
    dec:    declination in degrees
    elong:  elongation in degrees (angle sun-earth-minor planet)    
    phase:  phase angle in degrees (angle sun-minor planet-earth)        
    AU:     Astronomical Unit (mean distance between earth and sun: 149597870.7 km
    

Orbital elements provided by the MPC (Minor Planet Center).
Calculations by a modified version of AAPlus, a C# implementation of the AA+ project by PJ Naughter from the algorithms presented in the book "Astronomical Algorithms" by Jean Meeus.
NGC2000 dso catalog and star labels from VizieR as provided by the Strasbourg astronomical Data Center.
Tycho2 catalog from the ESO archive.